Regional Weather Roundup
Issued by NWS

Home | Current Version | Previous Version | Text Only | Print | Product List | Glossary On
Versions: 1 2 3 4 5 6 7 8 9 10 11 12 13 14 15 16 17 18 19 20 21 22 23 24 25 26 27 28 29 30 31 32 33 34 35 36 37 38 39 40 41 42 43 44 45 46 47 48 49 50
000
ASUS43 KTOP 221808
RWRKS

WEATHER ROUNDUP FOR KANSAS
NATIONAL WEATHER SERVICE GOODLAND KS
100 PM CDT FRI AUG 22 2014

NOTE:  "FAIR" INDICATES FEW OR NO CLOUDS BELOW 12,000 FEET WITH NO
SIGNIFICANT WEATHER AND/OR OBSTRUCTIONS TO VISIBILITY.

KSZ001>006-013>018-027>032-041>047-221900-
NORTHWEST KANSAS

CITY           SKY/WX    TMP DP  RH WIND       PRES   REMARKS
GOODLAND       MOSUNNY   84  58  40 NE21G30   30.05F
6HR MIN TEMP:  67; 6HR MAX TEMP:  87;

HAYS           SUNNY     90  70  51 NE8       29.93F HX  95
HILL CITY      MOSUNNY   91  67  44 NE13G20   29.95F
6HR MIN TEMP:  68; 6HR MAX TEMP:  91;

RUSSELL        SUNNY     94  64  37 NE7       29.91F HX  95
6HR MIN TEMP:  77; 6HR MAX TEMP:  94;

$$

KSZ061>065-074>080-084>089-221900-
SOUTHWEST KANSAS

CITY           SKY/WX    TMP DP  RH WIND       PRES   REMARKS
DODGE CITY     PTSUNNY   92  61  35 CALM      29.96F
6HR MIN TEMP:  74; 6HR MAX TEMP:  93;

ELKHART          N/A     95  58  29 S10         N/A
GARDEN CITY    PTSUNNY   88  63  43 E6        29.96F
6HR MIN TEMP:  69; 6HR MAX TEMP:  89;

GREAT BEND     SUNNY     95  66  38 S6        29.90F HX  98
LIBERAL        SUNNY     99  57  25 S15G22    29.97F HX  97
PRATT          PTSUNNY   90  61  37 SW8       29.95S
$$

KSZ066>073-081>083-090>101-221900-
SOUTHEAST KANSAS

CITY           SKY/WX    TMP DP  RH WIND       PRES   REMARKS
CHANUTE        SUNNY     96  70  42 S15G22    29.95F HX 102
6HR MIN TEMP:  76; 6HR MAX TEMP:  96;

COFFEYVILLE    SUNNY     96  71  44 S15G22    29.95F HX 103
6HR MIN TEMP:  78; 6HR MAX TEMP:  96;

HUTCHINSON     MOSUNNY   94  65  38 W14       29.92R THUNDER HX  96
6HR MIN TEMP:  77; 6HR MAX TEMP:  98;

MEDICINE LODGE   N/A     97  66  36 S13       29.90F HX 100
NEWTON         MOSUNNY   93  66  40 SW16      29.97S HX  96
PARSONS        SUNNY     95  71  45 S12       29.97S HX 102
6HR MIN TEMP:  76; 6HR MAX TEMP:  95;

WICHITA INTL   MOSUNNY   97  66  36 S14G23    29.91F HX 100
6HR MIN TEMP:  76; 6HR MAX TEMP:  97;

WICHITA JABRA  MOSUNNY   94  67  41 S16       29.92F HX  97
6HR MIN TEMP:  77; 6HR MAX TEMP:  94;

WICHITA MCCONL SUNNY     95  67  40 S14       29.93S HX  99
WINFIELD       SUNNY     97  68  38 SW18G26   29.94F HX 102
6HR MIN TEMP:  78; 6HR MAX TEMP:  97;

$$

KSZ007>012-019>026-033>040-048>060-102>105-221900-
NORTHEAST KANSAS

CITY           SKY/WX    TMP DP  RH WIND       PRES   REMARKS
CONCORDIA      PTSUNNY   78  76  93 E9        29.88F
6HR MIN TEMP:  73; 6HR MAX TEMP:  83; 6HR PCP:  0.53;

EMPORIA        PTSUNNY   80  70  71 E9        29.95R
6HR MIN TEMP:  75; 6HR MAX TEMP:  92; 6HR PCP: TRACE;

LAWRENCE       MOSUNNY   96  72  45 S7        29.92F HX 104
6HR MIN TEMP:  80; 6HR MAX TEMP:  96;

MANHATTAN      MOSUNNY   95  69  42 S8        29.89F HX 100
6HR MIN TEMP:  78; 6HR MAX TEMP:  96; 6HR PCP:  0.03;

MARYSVILLE     CLOUDY    79  73  83 S6        29.93R
OLATHE IND     PTSUNNY   88  75  65 S5        29.95S HX  97
6HR MIN TEMP:  76; 6HR MAX TEMP:  90; 6HR PCP:  0.06;

OLATHE EXE     PTSUNNY   88  73  61 SE6       29.94F HX  95
6HR MIN TEMP:  76; 6HR MAX TEMP:  89;

SALINA         MOSUNNY   88  72  58 SE12      29.91S
6HR MIN TEMP:  78; 6HR MAX TEMP:  95; 6HR PCP:  0.06;

TOPEKA BILLARD MOSUNNY   92  72  51 SE9       29.91F HX  99
6HR MIN TEMP:  80; 6HR MAX TEMP:  93;

TOPEKA FORBES  PTSUNNY   91  69  48 S13       29.93S HX  96
6HR MIN TEMP:  78; 6HR MAX TEMP:  95;

$$


USA.gov is the U.S. government's official web portal to all federal, state and local government web resources and services.